Location: York
(31.8935°S, 116.7682°E)
Time: 00:07:35
(UTC+08:00)

Envisat - Pass Details

Date: 24 May 2021
Orbit: 764 x 766 km, 98.1° (Epoch: 14 June)

Event Time Altitude Azimuth Distance (km) Brightness Sun altitude
Rises 18:03:02 0° 176° (S) 3,265 6.0 -9.5°
Reaches altitude 10° 18:05:25 10° 181° (S) 2,331 5.3 -10.0°
Maximum altitude 18:10:19 46° 253° (WSW) 1,025 4.1 -10.9°
Drops below altitude 10° 18:15:10 10° 326° (NW) 2,303 6.3 -11.9°
Sets 18:17:32 0° 331° (NNW) 3,222 7.0 -12.4°
